User: anonymous
Location: Unspecified
(0.0000°N, 0.0000°E)
Time: 21:30:03
(UTC+00:00)
Language:

RAX-2 - Orbit

View from above orbital plane
View from above orbital plane
View from above satellite
View from above satellite

Ground track
Ground track

The orbit data is extracted from the following two-line orbital elements,

1 37853U 11061D   14252.88628591  .00010906  00000-0  72495-3 0  9037
2 37853 101.7078 322.9633 0214212 171.5830 188.9564 14.90205205155276
Epoch (UTC): 09 September 2014 21:16:15
Eccentricity: 0.0214212
inclination: 101.7078°
perigee height: 448 km
apogee height: 747 km
right ascension of ascending node: 322.9633°
argument of perigee: 171.5830°
revolutions per day: 14.90205205
mean anomaly at epoch: 188.9564°
orbit number at epoch: 15527

The dashed part of the orbit path shows where the satellite is in the earth's shadow,  

DLR